Location: Newark
(32.3788°N, 35.6119°E)
Time: 19:04:50
(UTC+00:00)

ISS - Visible Passes

Search period start: 20 August 2019 00:00
Search period end: 30 August 2019 00:00
Orbit: 410 x 420 km, 51.6° (Epoch: 21 August)

Date Brightness Start Highest point End Pass type
(mag) Time Alt. Az. Time Alt. Az. Time Alt. Az.
24 Aug -1.2 02:03:50 10° SSE 02:06:00 16° SE 02:08:12 10° E visible
26 Aug -3.4 02:02:54 21° SSW 02:04:56 59° SE 02:08:14 10° NE visible
27 Aug -2.1 01:16:28 28° ESE 01:16:28 28° ESE 01:19:09 10° ENE visible
28 Aug -2.9 02:02:50 27° W 02:04:02 37° NW 02:07:10 10° NNE visible
29 Aug -2.6 01:16:13 41° NNE 01:16:13 41° NNE 01:18:32 10° NE visible
